[[{"header":{"parameterUnit":"m.s-1","parameterCategory":1,"la1":30.2991,"la2":30.254,"lo1":-89.0895,"lo2":-89.0444,"dy":0.0017,"dx":0.0017,"nx":28,"ny":28,"refTime":"2025-11-13T03:00:00:Z","depth":0,"parameterNumber":2,"parameterNumberName":"U-component_of_WINDS"},"data":[0,0,0,0,0,0,0,0,0,0,0,0,0,0,0,0,0,0,0,0,0,0,0,0,0,0,0,0,0,0,0,0,0,0,0,0,0,0,0,0,0,0,0,0,0,0,0,0,0,0,0,0,0,0,0,0,0,0,2.3781,2.3783,0,2.3986,2.3988,2.399,2.3987,2.3984,2.3982,2.3979,2.4194,2.4202,2.421,0,0,0,0,0,0,0,0,0,0,0,0,0,2.3392,2.3399,2.3781,2.3783,2.3786,2.3985,2.3988,2.3991,2.3988,2.3984,2.3981,2.3978,2.4191,2.4201,2.4211,0,0,0,0,0,0,0,0,0,0,0,0,0,2.3575,2.3402,2.378,2.3808,2.3813,2.3985,2.3988,2.3992,2.3988,2.3984,2.398,2.3976,2.4188,2.42,2.4213,2.4372,0,0,2.4251,2.4256,0,0,0,0,0,0,0,0,2.3565,2.359,2.3801,2.3806,2.3812,2.3956,2.393,2.4119,2.3989,2.3922,2.3979,2.3974,2.4119,2.4137,2.4184,2.4382,2.4391,2.4252,2.4259,2.4265,2.4268,0,0,0,0,0,0,0,2.3552,2.3581,2.3862,2.3805,2.3811,2.3812,2.3834,2.3966,2.4041,2.3927,2.3928,2.3952,2.4121,2.4172,2.4189,2.4395,2.4251,2.4262,2.427,2.4275,2.4735,2.4739,0,0,0,0,0,0,2.3533,2.357,2.3855,2.3868,2.3676,2.3822,2.3846,2.3914,2.404,2.4055,2.3955,2.3951,2.4153,2.4175,2.4197,2.4392,2.4264,2.4276,2.4283,2.473,2.4736,2.4741,0,0,0,0,0,0,2.3525,2.3558,2.3847,2.3719,2.3756,2.3834,2.391,2.3921,2.3972,2.406,2.4074,2.3993,2.4151,2.4179,2.4328,2.44,2.4282,2.4293,2.4724,2.4732,2.4738,2.4784,0,0,0,0,0,0,2.3514,2.3555,2.3615,2.3721,2.3763,2.3974,2.3914,2.3928,2.3993,2.3989,2.41,2.4115,2.415,2.431,2.4341,2.4415,2.4303,2.4718,2.4728,2.4736,2.4776,2.4791,2.4805,0,0,0,0,0,2.35,2.3621,2.3619,2.3653,2.3839,2.3978,2.4002,2.4038,2.3998,2.406,2.4117,2.4111,2.4387,2.4325,2.436,2.4439,2.4714,2.4725,2.4735,2.477,2.4788,2.4804,0,0,0,0,0,0,2.3524,2.3635,2.3634,2.3792,2.3875,2.3977,2.4056,2.4057,2.4154,2.4147,2.419,2.4215,2.4364,2.4416,2.4345,2.46,2.4546,2.4564,2.456,2.4579,2.4592,2.4577,2.4313,0,0,0,0,0,2.3548,2.3649,2.3741,2.3873,2.3914,2.3978,2.404,2.406,2.4149,2.4184,2.4252,2.434,2.4446,2.4515,2.4618,2.4784,2.4809,2.4855,2.487,2.4881,2.4896,2.4988,2.501,2.4776,2.4776,2.4776,0,0,2.3598,2.3671,2.3733,2.3879,2.3946,2.4052,2.4007,2.4121,2.42,2.4202,2.4346,2.4399,2.45,2.4658,2.4731,2.4707,2.4966,2.4894,2.4903,2.4912,2.5002,2.5024,2.5043,2.4783,2.4782,2.4781,0,0,2.3743,2.3808,2.3925,2.3993,2.4093,2.4135,2.4163,2.4265,2.43,2.4445,2.4448,2.4544,2.4727,2.4798,2.4858,2.5032,2.503,2.5064,2.5139,2.5228,2.5247,2.5263,2.5325,2.5347,2.5079,2.5079,2.508,0,2.3793,2.395,2.3985,2.4099,2.4164,2.4169,2.4288,2.4353,2.4483,2.4529,2.4499,2.4728,2.4796,2.4971,2.5013,2.5062,2.5096,2.5052,2.5241,2.5258,2.5274,2.5334,2.5357,2.5083,2.5083,2.5082,2.5082,0,2.4007,2.4117,2.4199,2.4322,2.4397,2.4513,2.4567,2.4639,2.4653,2.4699,2.4847,2.4929,2.5049,2.5092,2.5108,2.5271,2.5252,2.5231,2.5177,2.5299,2.5356,2.5379,2.5088,2.5087,2.5086,2.5085,0,0,2.4173,2.4314,2.4344,2.44,2.4513,2.4599,2.4716,2.4831,2.4892,2.4982,2.5082,2.5237,2.5218,2.5286,2.5311,2.539,2.5522,2.5359,2.5362,2.5387,2.5707,2.5721,2.5747,2.5522,2.5526,2.553,2.5698,0,2.433,2.4536,2.4571,2.4752,2.4854,2.486,2.4963,2.5044,2.509,2.5184,2.5236,2.5344,2.5312,2.5353,2.5431,2.5489,2.5587,2.5478,2.5617,2.5621,2.559,2.5777,2.5793,2.5947,2.5721,2.5724,2.5727,0,2.454,2.4634,2.4824,2.4923,2.4967,2.5058,2.5167,2.5257,2.535,2.5378,2.5454,2.547,2.5594,2.5534,2.5706,2.5631,2.5691,2.5728,2.5735,2.5749,2.5681,2.5796,2.5998,2.6021,2.5763,2.576,2.5757,0,2.4642,2.4816,2.4953,2.5001,2.5119,2.5183,2.5236,2.5324,2.5392,2.5488,2.5532,2.5642,2.5702,2.5788,2.5834,2.5786,2.6003,2.5947,2.603,2.6029,2.6075,2.6072,2.6289,2.6114,2.6114,2.6113,2.6113,0,2.4813,2.493,2.5,2.5084,2.5215,2.5255,2.5384,2.5436,2.5515,2.561,2.5624,2.5714,2.5769,2.5867,2.5904,2.6041,2.6068,2.6095,2.6104,2.6094,2.6091,2.6133,2.6124,2.6119,2.6118,2.6117,2.6116,0,2.4949,2.5,2.5149,2.5249,2.5277,2.5369,2.5456,2.5539,2.5584,2.5705,2.5736,2.5809,2.5925,2.5979,2.6124,2.6149,2.6305,2.6306,2.6273,2.6276,2.6356,2.6348,2.6608,2.6645,2.6445,2.6447,2.6448,0,2.5055,2.5144,2.5253,2.5317,2.5371,2.5474,2.5542,2.5586,2.5658,2.577,2.584,2.5956,2.6052,2.6238,2.6305,2.6416,2.642,2.6504,2.6437,2.6424,2.6421,2.6415,2.6425,2.6516,2.6518,2.6519,2.652,0,2.5237,2.5258,2.5355,2.5461,2.5542,2.5629,2.5713,2.5766,2.5823,2.5903,2.6021,2.6095,2.6242,2.6358,2.6474,2.6531,2.6536,2.6541,2.6566,2.6557,2.6534,2.6548,2.6305,2.6535,2.6533,2.6532,2.6531,2.6531,2.5361,2.5441,2.553,2.5638,2.5706,2.5785,2.5867,2.5923,2.6022,2.6144,2.6164,2.6291,2.6383,2.6538,2.6599,2.6699,2.668,2.6716,2.6726,2.6734,2.6738,2.6518,2.6721,2.672,2.672,2.672,2.672,0,2.5544,2.5601,2.57,2.5818,2.5903,2.5899,2.5993,2.6065,2.6175,2.626,2.6353,2.649,2.6603,2.6678,2.6793,2.6859,2.6865,2.6888,2.6884,2.6897,2.6749,2.6716,2.6882,2.6882,2.6882,2.6881,2.6881,2.6881,2.5649,2.5783,2.5815,2.5985,2.6042,2.6164,2.6219,2.6292,2.636,2.6511,2.6604,2.6652,2.6734,2.6855,2.6959,2.6978,2.702,2.7044,2.7063,2.6924,2.6907,2.6891,2.686,2.7053,2.7053,2.7202,2.7203,2.7204]},{"header":{"parameterUnit":"m.s-1","parameterCategory":1,"la1":30.2991,"la2":30.254,"lo1":-89.0895,"lo2":-89.0444,"dy":0.0017,"dx":0.0017,"nx":28,"ny":28,"refTime":"2025-11-13T03:00:00:Z","depth":0,"parameterNumber":3,"parameterNumberName":"V-component_of_WINDS"},"data":[0,0,0,0,0,0,0,0,0,0,0,0,0,0,0,0,0,0,0,0,0,0,0,0,0,0,0,0,0,0,0,0,0,0,0,0,0,0,0,0,0,0,0,0,0,0,0,0,0,0,0,0,0,0,0,0,0,0,0.1389,0.139,0,0.1493,0.1495,0.1496,0.1496,0.1495,0.1493,0.1492,0.1603,0.1607,0.1611,0,0,0,0,0,0,0,0,0,0,0,0,0,0.1193,0.1196,0.1389,0.139,0.1391,0.1493,0.1495,0.1496,0.1496,0.1495,0.1493,0.1491,0.1602,0.1607,0.1612,0,0,0,0,0,0,0,0,0,0,0,0,0,0.1286,0.1197,0.1388,0.1404,0.1406,0.1493,0.1495,0.1496,0.1497,0.1494,0.1492,0.1491,0.16,0.1606,0.1612,0.1692,0,0,0.1632,0.1634,0,0,0,0,0,0,0,0,0.128,0.1293,0.14,0.1403,0.1405,0.1479,0.1466,0.1562,0.1497,0.1462,0.1492,0.149,0.1564,0.1573,0.1597,0.1698,0.1702,0.1632,0.1636,0.1639,0.1641,0,0,0,0,0,0,0,0.1274,0.1288,0.143,0.1402,0.1405,0.1406,0.1417,0.1484,0.1523,0.1465,0.1465,0.1478,0.1565,0.1591,0.16,0.1704,0.1632,0.1638,0.1642,0.1644,0.1876,0.1878,0,0,0,0,0,0,0.1264,0.1283,0.1427,0.1433,0.1336,0.1411,0.1424,0.1458,0.1523,0.153,0.1479,0.1477,0.1581,0.1592,0.1604,0.1702,0.1639,0.1645,0.1648,0.1874,0.1876,0.1879,0,0,0,0,0,0,0.126,0.1277,0.1423,0.1358,0.1377,0.1417,0.1455,0.1461,0.1487,0.1533,0.154,0.1499,0.158,0.1595,0.167,0.1706,0.1648,0.1653,0.1871,0.1874,0.1878,0.19,0,0,0,0,0,0,0.1254,0.1275,0.1305,0.1359,0.138,0.1487,0.1457,0.1464,0.1498,0.1496,0.1553,0.1561,0.158,0.1661,0.1677,0.1714,0.1658,0.1868,0.1872,0.1877,0.1896,0.1904,0.191,0,0,0,0,0,0.1247,0.1308,0.1307,0.1324,0.1419,0.1489,0.1501,0.152,0.15,0.1532,0.1561,0.1559,0.1699,0.1668,0.1686,0.1726,0.1866,0.1871,0.1876,0.1893,0.1902,0.191,0,0,0,0,0,0,0.1259,0.1315,0.1315,0.1395,0.1437,0.1488,0.1528,0.1529,0.1579,0.1576,0.1598,0.1611,0.1687,0.1714,0.1678,0.1807,0.178,0.1789,0.1787,0.1796,0.1803,0.1796,0.1664,0,0,0,0,0,0.1271,0.1322,0.1369,0.1435,0.1456,0.1488,0.152,0.153,0.1576,0.1594,0.1629,0.1674,0.1728,0.1763,0.1816,0.19,0.1913,0.1936,0.1943,0.1948,0.1957,0.2004,0.2015,0.1896,0.1896,0.1896,0,0,0.1296,0.1333,0.1364,0.1438,0.1472,0.1526,0.1503,0.1561,0.1601,0.1603,0.1676,0.1703,0.1755,0.1835,0.1872,0.186,0.1992,0.1955,0.1959,0.1965,0.201,0.2021,0.2031,0.19,0.1899,0.1899,0,0,0.137,0.1403,0.1461,0.1495,0.1546,0.1568,0.1582,0.1633,0.1651,0.1724,0.1727,0.1776,0.1868,0.1905,0.1936,0.2023,0.2023,0.2039,0.2077,0.2122,0.2132,0.214,0.2172,0.2183,0.2047,0.2047,0.2047,0,0.1396,0.1475,0.1492,0.155,0.1583,0.1585,0.1645,0.1678,0.1744,0.1767,0.1752,0.1868,0.1903,0.1992,0.2013,0.2038,0.2056,0.2034,0.2129,0.2137,0.2145,0.2176,0.2188,0.2048,0.2048,0.2048,0.2048,0,0.1505,0.156,0.1601,0.1664,0.1701,0.176,0.1787,0.1823,0.183,0.1853,0.1928,0.197,0.2031,0.2053,0.2061,0.2143,0.2134,0.2123,0.2097,0.2158,0.2188,0.22,0.2051,0.205,0.205,0.2049,0,0,0.1591,0.1661,0.1676,0.1704,0.176,0.1804,0.1863,0.1921,0.1952,0.1997,0.2049,0.2126,0.2117,0.2152,0.2164,0.2204,0.2271,0.2189,0.219,0.2204,0.2366,0.2374,0.2388,0.2271,0.2273,0.2275,0.2362,0,0.1672,0.1775,0.1792,0.1884,0.1936,0.1938,0.199,0.203,0.2053,0.2101,0.2127,0.2182,0.2164,0.2186,0.2225,0.2255,0.2304,0.2248,0.232,0.2323,0.2309,0.2403,0.2413,0.2493,0.2373,0.2375,0.2377,0,0.178,0.1827,0.1923,0.1972,0.1995,0.2041,0.2096,0.2141,0.2187,0.2201,0.2239,0.2247,0.2309,0.2279,0.2366,0.2328,0.2358,0.2377,0.238,0.2389,0.2354,0.2416,0.2518,0.2531,0.2395,0.2393,0.2392,0,0.1835,0.1922,0.1991,0.2015,0.2073,0.2106,0.2132,0.2176,0.221,0.2258,0.2281,0.2336,0.2367,0.2409,0.2432,0.2407,0.2518,0.2489,0.2533,0.2532,0.2557,0.2556,0.2668,0.2574,0.2574,0.2574,0.2573,0,0.1924,0.1984,0.2016,0.2059,0.2126,0.2144,0.2211,0.2236,0.2275,0.2324,0.2329,0.2375,0.2401,0.2451,0.2468,0.2539,0.2552,0.2566,0.2571,0.2567,0.2565,0.2588,0.2584,0.2577,0.2576,0.2576,0.2575,0,0.1997,0.2021,0.2097,0.2146,0.2159,0.2206,0.2249,0.2291,0.2313,0.2374,0.239,0.2425,0.2484,0.251,0.2583,0.2595,0.2675,0.2675,0.266,0.2662,0.2704,0.27,0.2836,0.2856,0.2747,0.2748,0.2749,0,0.2054,0.2099,0.2152,0.2184,0.2211,0.2263,0.2297,0.2317,0.2353,0.2409,0.2445,0.2503,0.2552,0.2646,0.2679,0.2734,0.2737,0.278,0.2745,0.274,0.2739,0.2737,0.2742,0.2787,0.2788,0.2789,0.279,0,0.2151,0.2161,0.2209,0.2262,0.2303,0.2346,0.2388,0.2414,0.2441,0.2481,0.2541,0.2578,0.2652,0.2711,0.2768,0.2796,0.2799,0.28,0.2814,0.2811,0.2801,0.2808,0.2679,0.2798,0.2797,0.2796,0.2796,0.2795,0.2219,0.226,0.2303,0.2357,0.2391,0.243,0.2472,0.2499,0.2548,0.2609,0.2618,0.2682,0.2727,0.2805,0.2835,0.2886,0.2876,0.2895,0.29,0.2905,0.2908,0.2791,0.2896,0.2896,0.2896,0.2896,0.2896,0,0.2318,0.2346,0.2395,0.2453,0.2496,0.2492,0.2538,0.2575,0.2631,0.2672,0.2719,0.2788,0.2845,0.2881,0.2939,0.2973,0.2975,0.2987,0.2986,0.2993,0.2913,0.2897,0.2985,0.2985,0.2985,0.2985,0.2985,0.2985,0.2375,0.2444,0.2458,0.2544,0.2572,0.2634,0.2661,0.2697,0.273,0.2807,0.2853,0.2876,0.2916,0.2977,0.3029,0.3038,0.306,0.3073,0.3082,0.3007,0.2998,0.299,0.2974,0.3077,0.3077,0.3158,0.3158,0.3159]}]]